When you browse on this site, cookies collect data to enhance your experience and personalize the content and advertising you see.
Visit our Privacy Policy to learn more. By continuing to use the site, you agree to this use of cookies and data.
  • In Österreich
  • Länderverzeichnis
  • Für 7 Tage
  • Wassertemperatur
  • Satellitenkarten
  • Wetterkarte
  • News
  • Widgets
  • user-avatar
    Anmelden

    Stündliche Wetter Shaki

    Heute, 17 Juli, Mittwoch

    Zeit Temperatur Niederschläge Wind Luftdruck Luftfeuchtigkeit
    00:00 +26°C° 0 mm 3 m/S 729 mmHg 57%
    01:00 +26°C° 0 mm 2 m/S 729 mmHg 57%
    02:00 +26°C° 0 mm 2 m/S 729 mmHg 57%
    03:00 +25°C° 0 mm 1 m/S 729 mmHg 60%
    04:00 +26°C° 0 mm 2 m/S 729 mmHg 61%
    05:00 +26°C° 0 mm 2 m/S 730 mmHg 62%
    06:00 +26°C° 0 mm 2 m/S 730 mmHg 64%
    07:00 +28°C° 0 mm 3 m/S 730 mmHg 61%
    08:00 +29°C° 0 mm 4 m/S 730 mmHg 58%
    09:00 +30°C° 0 mm 4 m/S 730 mmHg 55%
    10:00 +32°C° 0 mm 4 m/S 730 mmHg 53%
    11:00 +33°C° 0 mm 3 m/S 730 mmHg 50%
    12:00 +34°C° 0 mm 3 m/S 730 mmHg 47%
    13:00 +35°C° 0 mm 4 m/S 730 mmHg 45%
    14:00 +36°C° 0 mm 4 m/S 729 mmHg 43%
    15:00 +36°C° 0 mm 5 m/S 729 mmHg 41%
    16:00 +36°C° 0 mm 4 m/S 729 mmHg 43%
    17:00 +35°C° 0 mm 4 m/S 729 mmHg 45%
    18:00 +35°C° 0 mm 4 m/S 729 mmHg 46%
    19:00 +33°C° 0 mm 4 m/S 730 mmHg 51%
    20:00 +30°C° 0 mm 5 m/S 730 mmHg 56%
    21:00 +28°C° 0 mm 5 m/S 730 mmHg 61%
    22:00 +27°C° 0 mm 4 m/S 730 mmHg 63%
    23:00 +26°C° 0 mm 4 m/S 730 mmHg 64%

    Morgen, 18 Juli, Donnerstag

    Zeit Temperatur Niederschläge Wind Luftdruck Luftfeuchtigkeit
    00:00 +26°C° 0 mm 3 m/S 730 mmHg 65%
    01:00 +25°C° 0 mm 2 m/S 730 mmHg 66%
    02:00 +25°C° 0 mm 2 m/S 730 mmHg 66%
    03:00 +25°C° 0 mm 1 m/S 730 mmHg 67%
    04:00 +26°C° 0 mm 1 m/S 730 mmHg 66%
    05:00 +26°C° 0 mm 1 m/S 730 mmHg 66%
    06:00 +26°C° 0 mm 1 m/S 730 mmHg 66%
    07:00 +28°C° 0 mm 1 m/S 730 mmHg 60%
    08:00 +29°C° 0 mm 2 m/S 730 mmHg 55%
    09:00 +31°C° 0 mm 3 m/S 730 mmHg 50%
    10:00 +33°C° 0 mm 3 m/S 730 mmHg 48%
    11:00 +34°C° 0 mm 2 m/S 729 mmHg 45%
    12:00 +35°C° 0 mm 2 m/S 729 mmHg 42%
    13:00 +35°C° 0 mm 2 m/S 729 mmHg 41%
    14:00 +36°C° 0 mm 2 m/S 728 mmHg 39%
    15:00 +36°C° 0 mm 1 m/S 728 mmHg 38%
    16:00 +36°C° 0 mm 1 m/S 728 mmHg 39%
    17:00 +36°C° 0 mm 1 m/S 728 mmHg 40%
    18:00 +35°C° 0 mm 1 m/S 728 mmHg 40%
    19:00 +34°C° 0 mm 1 m/S 729 mmHg 43%
    20:00 +32°C° 0 mm 1 m/S 729 mmHg 46%
    21:00 +30°C° 0 mm 2 m/S 729 mmHg 49%
    22:00 +29°C° 0 mm 2 m/S 729 mmHg 49%
    23:00 +28°C° 0 mm 2 m/S 729 mmHg 50%

    übermorgen, 19 Juli, Freitag

    Zeit Temperatur Niederschläge Wind Luftdruck Luftfeuchtigkeit
    00:00 +27°C° 0 mm 2 m/S 729 mmHg 50%
    01:00 +27°C° 0 mm 1 m/S 729 mmHg 51%
    02:00 +27°C° 0 mm 1 m/S 729 mmHg 52%
    03:00 +26°C° 0 mm 1 m/S 730 mmHg 53%
    04:00 +25°C° 0 mm 0 m/S 730 mmHg 54%
    05:00 +25°C° 0 mm 0 m/S 730 mmHg 54%
    06:00 +26°C° 0 mm 0 m/S 730 mmHg 54%
    07:00 +27°C° 0 mm 0 m/S 731 mmHg 51%
    08:00 +31°C° 0 mm 1 m/S 731 mmHg 47%
    09:00 +32°C° 0 mm 1 m/S 731 mmHg 44%
    10:00 +33°C° 0 mm 1 m/S 731 mmHg 41%
    11:00 +36°C° 0 mm 2 m/S 731 mmHg 39%
    12:00 +37°C° 0 mm 2 m/S 731 mmHg 37%
    13:00 +37°C° 0 mm 2 m/S 731 mmHg 35%
    14:00 +38°C° 0 mm 3 m/S 731 mmHg 34%
    15:00 +39°C° 0 mm 3 m/S 731 mmHg 33%
    16:00 +38°C° 0 mm 3 m/S 731 mmHg 34%
    17:00 +38°C° 0 mm 3 m/S 732 mmHg 35%
    18:00 +37°C° 0 mm 3 m/S 732 mmHg 37%
    19:00 +35°C° 0 mm 3 m/S 732 mmHg 41%
    20:00 +33°C° 0 mm 4 m/S 733 mmHg 45%
    21:00 +30°C° 0 mm 4 m/S 733 mmHg 49%
    22:00 +30°C° 0 mm 3 m/S 734 mmHg 50%
    23:00 +29°C° 0 mm 3 m/S 734 mmHg 52%

    20 Juli, Samstag

    Zeit Temperatur Niederschläge Wind Luftdruck Luftfeuchtigkeit
    00:00 +28°C° 0 mm 2 m/S 734 mmHg 54%
    01:00 +28°C° 0 mm 2 m/S 734 mmHg 55%
    02:00 +27°C° 0 mm 2 m/S 734 mmHg 56%
    03:00 +27°C° 0 mm 1 m/S 734 mmHg 58%
    04:00 +27°C° 0 mm 1 m/S 734 mmHg 58%
    05:00 +27°C° 0 mm 2 m/S 735 mmHg 59%
    06:00 +27°C° 0 mm 2 m/S 735 mmHg 60%
    07:00 +29°C° 0 mm 2 m/S 735 mmHg 55%
    08:00 +30°C° 0 mm 2 m/S 735 mmHg 51%
    09:00 +32°C° 0 mm 2 m/S 736 mmHg 46%
    10:00 +34°C° 0 mm 3 m/S 736 mmHg 42%
    11:00 +36°C° 0 mm 3 m/S 736 mmHg 38%
    12:00 +37°C° 0 mm 4 m/S 736 mmHg 34%
    13:00 +38°C° 0 mm 4 m/S 735 mmHg 33%
    14:00 +40°C° 0 mm 4 m/S 735 mmHg 32%
    15:00 +40°C° 0 mm 5 m/S 735 mmHg 30%
    16:00 +40°C° 0 mm 5 m/S 735 mmHg 32%
    17:00 +39°C° 0 mm 5 m/S 736 mmHg 33%
    18:00 +37°C° 0 mm 5 m/S 736 mmHg 34%
    19:00 +35°C° 0 mm 5 m/S 736 mmHg 38%
    20:00 +33°C° 0 mm 5 m/S 736 mmHg 42%
    21:00 +30°C° 0 mm 5 m/S 737 mmHg 46%
    22:00 +29°C° 0 mm 4 m/S 737 mmHg 48%
    23:00 +28°C° 0 mm 3 m/S 737 mmHg 50%

    21 Juli, Sonntag

    Zeit Temperatur Niederschläge Wind Luftdruck Luftfeuchtigkeit
    00:00 +27°C° 0 mm 3 m/S 737 mmHg 52%
    01:00 +27°C° 0 mm 2 m/S 736 mmHg 53%
    02:00 +27°C° 0 mm 2 m/S 736 mmHg 54%
    03:00 +26°C° 0 mm 2 m/S 736 mmHg 55%
    04:00 +27°C° 0 mm 2 m/S 736 mmHg 54%
    05:00 +27°C° 0 mm 2 m/S 736 mmHg 54%
    06:00 +28°C° 0 mm 2 m/S 736 mmHg 53%
    07:00 +29°C° 0 mm 2 m/S 736 mmHg 49%
    08:00 +31°C° 0 mm 3 m/S 736 mmHg 46%
    09:00 +33°C° 0 mm 3 m/S 736 mmHg 42%
    10:00 +34°C° 0 mm 4 m/S 736 mmHg 39%
    11:00 +36°C° 0 mm 4 m/S 735 mmHg 36%
    12:00 +37°C° 0 mm 5 m/S 735 mmHg 33%
    13:00 +38°C° 0 mm 4 m/S 734 mmHg 32%
    14:00 +38°C° 0 mm 4 m/S 734 mmHg 30%
    15:00 +40°C° 0 mm 4 m/S 733 mmHg 29%
    16:00 +40°C° 0 mm 4 m/S 733 mmHg 30%
    17:00 +38°C° 0 mm 3 m/S 733 mmHg 32%
    18:00 +38°C° 0 mm 2 m/S 733 mmHg 33%
    19:00 +35°C° 0 mm 3 m/S 734 mmHg 36%
    20:00 +33°C° 0 mm 3 m/S 734 mmHg 39%
    21:00 +30°C° 0 mm 3 m/S 734 mmHg 43%
    22:00 +30°C° 0 mm 3 m/S 734 mmHg 44%
    23:00 +29°C° 0 mm 2 m/S 734 mmHg 45%

    22 Juli, Montag

    Zeit Temperatur Niederschläge Wind Luftdruck Luftfeuchtigkeit
    00:00 +28°C° 0 mm 2 m/S 734 mmHg 46%
    01:00 +28°C° 0 mm 2 m/S 733 mmHg 47%
    02:00 +28°C° 0 mm 1 m/S 733 mmHg 48%
    03:00 +27°C° 0 mm 1 m/S 733 mmHg 49%
    04:00 +28°C° 0 mm 1 m/S 733 mmHg 48%
    05:00 +26°C° 0 mm 0 m/S 733 mmHg 48%
    06:00 +27°C° 0 mm 0 m/S 733 mmHg 48%
    07:00 +30°C° 0 mm 1 m/S 733 mmHg 44%
    08:00 +32°C° 0 mm 1 m/S 733 mmHg 41%
    09:00 +34°C° 0 mm 2 m/S 733 mmHg 38%
    10:00 +35°C° 0 mm 2 m/S 733 mmHg 35%
    11:00 +36°C° 0 mm 3 m/S 733 mmHg 33%
    12:00 +38°C° 0 mm 3 m/S 733 mmHg 31%
    13:00 +38°C° 0 mm 4 m/S 733 mmHg 30%
    14:00 +40°C° 0 mm 4 m/S 732 mmHg 29%
    15:00 +41°C° 0 mm 4 m/S 732 mmHg 28%
    16:00 +40°C° 0 mm 4 m/S 732 mmHg 29%
    17:00 +38°C° 0 mm 4 m/S 732 mmHg 30%
    18:00 +38°C° 0 mm 4 m/S 732 mmHg 31%
    19:00 +36°C° 0 mm 4 m/S 732 mmHg 35%
    20:00 +34°C° 0 mm 4 m/S 732 mmHg 38%
    21:00 +31°C° 0 mm 3 m/S 733 mmHg 41%
    22:00 +30°C° 0 mm 3 m/S 733 mmHg 43%
    23:00 +29°C° 0 mm 3 m/S 733 mmHg 44%
    Mehr zeigen